Ogden Hill AFB, UT

6:45 AM MST on February 22, 2018 (GMT -0700)
Hill Air Force Base

Weather History for KHIF - January, 2013

Change the Weather History Date:

Thursday, January 10, 2013

  Actual Average Record
Temperature  
Mean Temperature 30 °F -  
Max Temperature 41 °F 34 °F 48 °F (1999)
Min Temperature 19 °F 22 °F 9 °F (2011)
Degree Days  
Heating Degree Days 35    
Moisture  
Dew Point 22 °F    
Average Humidity 85    
Maximum Humidity 100    
Minimum Humidity 52    
Precipitation  
Precipitation 0.14 in - - ()
Sea Level Pressure  
Sea Level Pressure 29.60 in    
Wind  
Wind Speed 11 mph (NW)    
Max Wind Speed 20 mph    
Max Gust Speed 25 mph    
Visibility 3 miles    
Events Fog , Snow    
Averages and records for this station are not official NWS values.
T = Trace of Precipitation, MM = Missing Value Source: NWS Daily Summary

Daily Weather History Graph

Daily Weather History Graph

Search for Another Location

Airport or City:

Trip Planner

Search our weather history database for the weather conditions in past years. The results will help you decide how hot, cold, wet, or windy it might be!

Date:

Astronomy

Jan. 10, 2013 Rise Set
Actual Time 7:52 AM MST 5:18 PM MST
Civil Twilight 7:21 AM MST 5:49 PM MST
Nautical Twilight 6:47 AM MST 6:23 PM MST
Astronomical Twilight 6:14 AM MST 6:56 PM MST
Moon 6:35 AM MST (1/10) 4:31 PM MST (1/10)
Length of Visible Light 10h 27m
Length of Day
9h 26m
Waning Crescent, 2% of the Moon is Illuminated
Jan 10
Waning Crescent
Jan 11
New
Jan 18
First Quarter
Jan 26
Full
Feb 3
Last Quarter

Hourly Weather History & Observations

Time (MST) Temp. Windchill Dew Point Humidity Pressure Visibility Wind Dir Wind Speed Gust Speed Precip Events Conditions
12:58 AM 32.7 °F 25.0 °F 22.8 °F 67% 29.76 in 10.0 mi SSW 9.2 mph - N/A   Clear
1:58 AM 33.8 °F 25.3 °F 23.4 °F 66% 29.74 in 10.0 mi SSW 11.5 mph - N/A   Clear
2:58 AM 35.6 °F - 22.1 °F 58% 29.73 in 10.0 mi East 2.3 mph - N/A   Partly Cloudy
3:58 AM 36.0 °F 29.0 °F 23.5 °F 61% 29.71 in 10.0 mi SSE 9.2 mph - N/A   Partly Cloudy
4:58 AM 36.5 °F 30.3 °F 24.6 °F 62% 29.66 in 10.0 mi South 8.1 mph - N/A   Scattered Clouds
5:58 AM 38.1 °F 29.5 °F 24.1 °F 57% 29.62 in 10.0 mi South 15.0 mph - N/A   Clear
6:53 AM 39.2 °F 31.6 °F 24.8 °F 56% 29.59 in 10.0 mi South 12.7 mph 25.3 mph N/A   Mostly Cloudy
6:58 AM 38.3 °F 29.7 °F 24.3 °F 57% 29.59 in 10.0 mi South 15.0 mph 25.3 mph N/A   Mostly Cloudy
7:23 AM 39.2 °F 31.2 °F 23.0 °F 52% 29.59 in 10.0 mi South 13.8 mph 20.7 mph N/A   Scattered Clouds
7:28 AM 39.2 °F 30.5 °F 23.0 °F 52% 29.59 in 10.0 mi South 16.1 mph 20.7 mph N/A   Mostly Cloudy
7:58 AM 38.3 °F 29.7 °F 24.3 °F 57% 29.59 in 10.0 mi SSE 15.0 mph - N/A   Mostly Cloudy
8:55 AM 39.2 °F 31.6 °F 24.8 °F 56% 29.59 in 10.0 mi South 12.7 mph - N/A   Overcast
9:55 AM 41.0 °F 33.9 °F 24.8 °F 53% 29.57 in 10.0 mi SSW 12.7 mph - N/A   Overcast
10:55 AM 39.2 °F 35.0 °F 26.6 °F 61% 29.58 in 10.0 mi Variable 5.8 mph - N/A   Overcast
1:55 PM 34.3 °F 25.0 °F 27.1 °F 75% 29.53 in 10.0 mi WSW 13.8 mph - N/A   Mostly Cloudy
2:42 PM 32.0 °F 27.5 °F 26.6 °F 80% 29.56 in 2.0 mi SE 4.6 mph - N/A Snow Light Snow
2:55 PM 30.9 °F 25.2 °F 26.2 °F 83% 29.56 in 1.0 mi SSE 5.8 mph - 0.00 in Snow Light Snow
3:08 PM 32.0 °F 26.4 °F 26.6 °F 80% 29.56 in 0.5 mi NW 5.8 mph - N/A Snow Snow
3:14 PM 32.0 °F 26.4 °F 28.4 °F 87% 29.55 in 0.5 mi NNW 5.8 mph - N/A Fog , Snow Light Freezing Fog
3:29 PM 30.2 °F 19.8 °F 28.4 °F 93% 29.56 in 0.5 mi WNW 13.8 mph - N/A Snow Snow
3:58 PM 28.4 °F 18.0 °F 26.6 °F 93% 29.57 in 0.5 mi North 12.7 mph - 0.02 in Snow Snow
4:08 PM 26.6 °F 16.2 °F 24.8 °F 93% 29.56 in 0.5 mi NNW 11.5 mph - N/A Snow Snow
4:14 PM 26.6 °F 13.4 °F 24.8 °F 93% 29.56 in 0.2 mi NNW 18.4 mph - N/A Snow Heavy Snow
4:19 PM 26.6 °F 13.4 °F 24.8 °F 93% 29.56 in 0.2 mi NNW 18.4 mph - N/A Snow Heavy Snow
4:34 PM 26.6 °F 13.8 °F 24.8 °F 93% 29.56 in 0.2 mi NNW 17.3 mph - N/A Snow Heavy Snow
4:58 PM 25.5 °F 12.4 °F 24.1 °F 94% 29.60 in 0.2 mi NNW 17.3 mph - 0.06 in Snow Heavy Snow
5:07 PM 24.8 °F 10.7 °F 23.0 °F 93% 29.57 in 0.2 mi NNW 19.6 mph - N/A Snow Heavy Snow
5:18 PM 24.8 °F 12.4 °F 23.0 °F 93% 29.56 in 0.2 mi NNW 15.0 mph - N/A Snow Heavy Snow
5:23 PM 24.8 °F 12.4 °F 23.0 °F 93% 29.58 in 0.2 mi NNW 15.0 mph - N/A Snow Heavy Snow
5:28 PM 24.8 °F 12.9 °F 23.0 °F 93% 29.58 in 0.5 mi NNW 13.8 mph - N/A Snow Snow
5:43 PM 24.8 °F 11.9 °F 23.0 °F 93% 29.58 in 0.8 mi NNW 16.1 mph - N/A Snow Light Snow
5:48 PM 24.8 °F 13.4 °F 23.0 °F 93% 29.58 in 1.0 mi NNW 12.7 mph - N/A Snow Light Snow
5:58 PM 23.9 °F 11.7 °F 22.5 °F 94% 29.59 in 1.0 mi NNW 13.8 mph - 0.03 in Snow Light Snow
6:03 PM 23.0 °F 10.6 °F 23.0 °F 100% 29.58 in 1.2 mi North 13.8 mph - N/A Snow Light Snow
6:08 PM 23.0 °F 10.1 °F 23.0 °F 100% 29.59 in 1.5 mi North 15.0 mph - N/A Snow Light Snow
6:18 PM 23.0 °F 10.6 °F 21.2 °F 93% 29.57 in 1.5 mi North 13.8 mph - N/A Snow Light Snow
6:28 PM 23.0 °F 11.1 °F 21.2 °F 93% 29.58 in 1.8 mi NNW 12.7 mph - N/A Snow Light Snow
6:43 PM 23.0 °F 13.1 °F 21.2 °F 93% 29.58 in 1.8 mi NNW 9.2 mph - N/A Snow Light Snow
6:48 PM 23.0 °F 14.7 °F 21.2 °F 93% 29.58 in 2.0 mi NNW 6.9 mph - N/A Snow Light Snow
6:58 PM 23.0 °F 10.6 °F 21.2 °F 93% 29.60 in 1.5 mi NNW 13.8 mph - 0.02 in Snow Light Snow
7:03 PM 23.0 °F 11.1 °F 21.2 °F 93% 29.58 in 1.2 mi NNW 12.7 mph - N/A Snow Light Snow
7:13 PM 23.0 °F 11.7 °F 21.2 °F 93% 29.60 in 1.5 mi NW 11.5 mph - N/A Snow Light Snow
7:38 PM 21.2 °F 8.3 °F 19.4 °F 93% 29.59 in 1.5 mi NNW 13.8 mph - N/A Snow Light Snow
7:58 PM 21.9 °F 8.7 °F 19.9 °F 92% 29.61 in 1.5 mi NNW 15.0 mph - 0.01 in Snow Light Snow
8:13 PM 21.2 °F 9.5 °F 19.4 °F 93% 29.59 in 1.2 mi NW 11.5 mph - N/A Snow Light Snow
8:18 PM 21.2 °F 8.9 °F 19.4 °F 93% 29.59 in 1.5 mi NW 12.7 mph - N/A Snow Light Snow
8:28 PM 21.2 °F 10.1 °F 19.4 °F 93% 29.60 in 1.8 mi NW 10.4 mph - N/A Snow Light Snow
8:33 PM 21.2 °F 9.5 °F 19.4 °F 93% 29.60 in 2.0 mi NW 11.5 mph - N/A Snow Light Snow
8:48 PM 21.2 °F 9.5 °F 19.4 °F 93% 29.59 in 1.8 mi NW 11.5 mph - N/A Snow Light Snow
8:53 PM 21.2 °F 9.5 °F 19.4 °F 93% 29.59 in 1.8 mi NW 11.5 mph - N/A Snow Light Snow
8:58 PM 21.6 °F 10.6 °F 19.6 °F 92% 29.60 in 1.5 mi NW 10.4 mph - 0.00 in Snow Light Snow
9:28 PM 21.2 °F 8.9 °F 19.4 °F 93% 29.61 in 2.0 mi NNW 12.7 mph - N/A Snow Light Snow
9:33 PM 21.2 °F 10.1 °F 19.4 °F 93% 29.61 in 2.5 mi NNW 10.4 mph - N/A Snow Light Snow
9:38 PM 21.2 °F 10.1 °F 19.4 °F 93% 29.62 in 3.0 mi NNW 10.4 mph - N/A Snow Light Snow
9:43 PM 21.2 °F 10.1 °F 19.4 °F 93% 29.61 in 2.5 mi NNW 10.4 mph - N/A Snow Light Snow
9:48 PM 21.2 °F 8.9 °F 19.4 °F 93% 29.60 in 2.5 mi NNW 12.7 mph - N/A Snow Light Snow
9:58 PM 21.0 °F 9.3 °F 18.9 °F 91% 29.60 in 2.0 mi NNW 11.5 mph - 0.00 in Snow Light Snow
10:33 PM 21.2 °F 10.9 °F 19.4 °F 93% 29.61 in 2.0 mi NNW 9.2 mph - N/A Snow Light Snow
10:55 PM 21.2 °F 10.1 °F 19.4 °F 93% 29.61 in 2.5 mi NNW 10.4 mph - N/A Snow Light Snow
11:07 PM 21.2 °F 11.7 °F 19.4 °F 93% 29.61 in 1.8 mi NNW 8.1 mph - N/A Snow Light Snow
11:11 PM 21.2 °F 11.7 °F 19.4 °F 93% 29.61 in 1.5 mi NNW 8.1 mph - N/A Snow Light Snow
11:22 PM 21.2 °F 10.9 °F 17.6 °F 86% 29.61 in 1.8 mi NNW 9.2 mph - N/A Snow Light Snow
11:27 PM 21.2 °F 10.9 °F 19.4 °F 93% 29.61 in 1.8 mi NNW 9.2 mph - N/A Snow Light Snow
11:30 PM 21.2 °F 10.9 °F 19.4 °F 93% 29.61 in 2.0 mi NNW 9.2 mph - N/A Snow Light Snow
11:33 PM 21.2 °F 10.1 °F 19.4 °F 93% 29.61 in 1.8 mi NNW 10.4 mph - N/A Snow Light Snow
11:41 PM 21.2 °F 9.5 °F 17.6 °F 86% 29.61 in 1.5 mi NNW 11.5 mph - N/A Snow Light Snow
11:48 PM 19.4 °F 7.2 °F 17.6 °F 93% 29.61 in 1.8 mi NNW 11.5 mph - N/A Snow Light Snow
11:55 PM 19.4 °F 6.6 °F 17.6 °F 93% 29.61 in 1.8 mi NNW 12.7 mph - N/A Snow Light Snow